Retour au catalogue

FENGYUN 1C DEB

ActifPO
NORAD 37445·DEBRIS·🇨🇳 China

Lancé May 10, 1999 depuis Taiyuan Satellite Launch Center

Loading…

Prochains Passages (prochaines 24 heures)

TLE

FraisSource: Space-Track

Époque: Sep 13, 2026, 02:59 UTC

1 37445U 99025EHP 26256.12469219  .00000959  00000-0  35076-3 0  9990
2 37445  99.2507 350.4088 0167201 224.4016 134.3657 14.28081866683551

Suivez FENGYUN 1C DEB en temps réel avec AllMySat

Download on the App Store